1774 visiteurs
Prévisions de votre ville :
Vigilance : 26 départements 11 départements Mise à jour le 22/11/2019 à 16:09 - Voir la carte

Paris Roissy CDG (95380) le 22/11/2019 à 19:30 Choisir station

10°C 76 % ESE Vit. moyenne 26 kmh/h

Relevés météo quotidiens pour la station de :

UTC
S: Synop
M: Metar
Loc T°C
(°C)
Td
(°C)
HR
(%)
Vis
(km)
Néb
(octa)
Vent
(km/h)
Pression
(mb)
Précipitations
(mm)
Temps
              MOY
10 min
DIR RAF 1h MESURE VAR SUR 3h    
S 00 h 02h 21.5 10.9 51 60 - 11 26 1014.0 0.0/3h 0.0/6h - 0.0/3h -
S 01 h 03h 21.6 9.8 47 60 - 11 26 1013.7 -0.4/3h 0.0/1h -
S 02 h 04h 20.9 9.5 48 60 - 6 9 1013.4 -0.9/3h 0.0/1h -
S 03 h 05h 20.5 9.7 50 60 - 6 22 1013.6 -0.4/3h 0.0/3h -
S 04 h 06h 18.8 11.6 63 60 - 9 15 1014.0 +0.3/3h 0.0/1h -
S 05 h 07h 20.3 11.0 55 60 - 11 19 1013.9 +0.5/3h 0.0/1h -
S 06 h 08h 23.0 12.9 53 60 - 4 9 1014.0 +0.4/3h 0.0/12h - 0.0/3h - 0.0/24h -
S 07 h 09h 26.5 18.4 61 50 - 4 9 1014.1 +0.2/3h 0.0/1h -
S 08 h 10h 26.5 17.6 58 40 - 9 13 1013.9 +0.1/3h 0.0/1h -
S 09 h 11h 27.2 16.8 53 40 - 13 19 1013.8 -0.1/3h 0.0/3h -
S 10 h 12h 27.1 18.7 60 19 - 7 11 1013.9 -0.2/3h 0.0/1h -
S 11 h 13h 27.4 15.7 49 40 - 13 20 1013.6 -0.3/3h 0.0/1h -
S 12 h 14h 27.6 16.2 50 45 - 15 24 1013.3 -0.5/3h 0.0/6h - 0.0/3h -
S 13 h 15h 27.2 16.8 53 45 - 11 22 1013.3 -0.6/3h 0.0/1h -
S 14 h 16h 27.6 18.0 56 45 - 11 19 1013.0 -0.6/3h 0.0/1h -
S 15 h 17h 27.1 16.4 52 55 - 6 9 1012.9 -0.4/3h 0.0/3h -
S 16 h 18h 27.1 16.1 51 60 - 9 17 1012.4 -0.9/3h 0.0/1h -
S 17 h 19h 26.0 17.4 59 55 - 6 13 1012.2 -0.8/3h 0.0/1h -
S 18 h 20h 25.6 17.3 60 60 - 6 9 1012.0 -0.9/3h 0.0/12h - 0.0/3h -
S 19 h 21h 24.3 15.5 58 60 - 6 11 1012.0 -0.5/3h 0.0/1h -
S 20 h 22h 23.3 14.0 56 60 - 7 19 1012.2 -0.1/3h 0.0/1h -
S 21 h 23h 22.8 13.0 54 60 - 6 9 1012.1 0.0/3h 0.0/3h -
S 22 h 00h 22.2 12.4 54 60 - 9 20 1012.3 +0.3/3h 0.0/1h -
S 23 h 01h 21.9 11.9 53 60 - 6 19 1012.4 +0.2/3h 0.0/1h -
evolution des temperatures
cumul des precipitations
vent moyen et rafales
pression atmospherique

Un tiret (-) signifie que les données ne sont pas disponibles.

Passez la souris sur les pictos temps pour avoir plus de précisions. Passez les flèches sur l'icône de la direction du vent pour voir la direction précise en degrés.

Les données de l'heure en cours sont disponibles à partir de H+15 minutes.


S signifie station Synop, plus complète qu'une station Metar (M). Il y a +1h de différence entre l'heure UTC et l'heure légale en hiver et +2h en été.

Td est la mesure du point de rosée.

HR est l'humidité relative/p>

Vis est la visibilité

Néb est la nébulosité du ciel (couverture nuageuse) exprimée en octas (de 0/8 à 8/8).

Vent moy 10 min donne le vent moyen sur les 10 minutes qui précèdent le relevé.

Vent raf 1h donne la rafale maximale mesurée dans l'heure qui précède le relevé.


Les données les plus anciennes remontent à avril 2014.

Les données présentées sur cette page proviennent des stations météo officielles. Les relevés sont effectués aux normes en vigueur (anémomètre à 10m de haut, thermomètre sous abri normalisé à 2m du sol...)

Météo 60 décline toute responsabilité en cas d'absence de données, d'erreurs, de mauvaise utilisation ou interprétation et n'est pas habilité à fournir des certificats intempéries.